KF7MJQ-10 Weather Reports


Display with metric or nautical units.
time (UTC)temp
F
wind
direction
speed
MPH
gust
MPH
rain 1hr
in
rain 24hr
in
rain mn
in
humidity
%
barometer
mb
20260904030022 56 25 0.0 0.0 0.00 0.00 0.00 1 1008.7
20260904025520 56 25 0.0 0.0 0.00 0.00 0.00 1 1008.7
20260904025017 56 25 0.0 0.0 0.00 0.00 0.00 1 1008.7
20260904024516 56 24 0.0 0.0 0.00 0.00 0.00 1 1008.7
20260904024015 57 24 0.0 0.0 0.00 0.00 0.00 1 1008.7
20260904023514 57 25 0.0 0.0 0.00 0.00 0.00 1 1008.7
20260904023104 57 25 0.0 0.0 0.00 0.00 0.00 1 1008.7
20260904022554 58 24 0.0 0.0 0.00 0.00 0.00 1 1008.6
20260904022053 59 38 0.0 0.0 0.00 0.00 0.00 1 1008.6
20260904021550 59 39 0.0 0.0 0.00 0.00 0.00 1 1008.6
20260904021048 60 40 0.0 0.0 0.00 0.00 0.00 1 1008.6
20260904020549 60 65 0.0 0.0 0.00 0.00 0.00 1 1008.6
20260904020038 61 65 0.0 0.0 0.00 0.00 0.00 1 1008.5
20260904015532 61 26 0.0 0.0 0.00 0.00 0.00 1 1008.5
20260904015032 62 25 0.0 0.0 0.00 0.00 0.00 1 1008.4
20260904014530 62 24 0.0 2.0 0.00 0.00 0.00 1 1008.4
20260904014029 62 283 0.0 2.0 0.00 0.00 0.00 1 1008.3
20260904013526 62 316 0.0 2.0 0.00 0.00 0.00 1 1008.3
20260904013025 62 315 0.0 3.0 0.00 0.00 0.00 1 1008.3
20260904012525 62 240 0.0 1.0 0.00 0.00 0.00 1 1008.3
20260904012025 63 239 0.0 1.0 0.00 0.00 0.00 1 1008.3
20260904011521 63 112 0.0 2.0 0.00 0.00 0.00 1 1008.3
20260904011021 63 61 0.0 2.0 0.00 0.00 0.00 1 1008.3
20260904010521 63 300 0.0 1.0 0.00 0.00 0.00 1 1008.3
20260904010017 63 300 0.0 1.0 0.00 0.00 0.00 5 1008.3
20260904005515 63 301 0.0 1.0 0.00 0.00 0.00 16 1008.3
20260904005013 63 73 0.0 1.0 0.00 0.00 0.00 8 1008.3
20260904004512 64 73 0.0 1.0 0.00 0.00 0.00 1 1008.3
20260904004010 63 76 0.0 1.0 0.00 0.00 0.00 11 1008.3
20260904003512 64 117 0.0 0.0 0.00 0.00 0.00 1 1008.4
20260904003007 64 117 0.0 0.0 0.00 0.00 0.00 2 1008.4
20260904002507 63 115 0.0 0.0 0.00 0.00 0.00 7 1008.4
20260904002004 64 56 0.0 1.0 0.00 0.00 0.00 1 1008.5
20260904001502 63 53 0.0 1.0 0.00 0.00 0.00 1 1008.5
20260904001004 63 72 0.0 1.0 0.00 0.00 0.00 1 1008.6
20260904000601 63 75 0.0 1.0 0.00 0.00 0.00 1 1008.6
20260904000116 63 76 0.0 0.0 0.00 0.00 0.00 1 1008.6
20260903235546 63 76 0.0 1.0 0.00 0.00 0.00 1 1008.5
20260903235044 63 78 0.0 2.0 0.00 0.00 0.00 1 1008.5
20260903234543 63 78 0.0 2.0 0.00 0.00 0.00 1 1008.5
20260903234042 63 213 0.0 1.0 0.00 0.00 0.00 1 1008.4
20260903233540 63 78 0.0 1.0 0.00 0.00 0.00 1 1008.5
20260903233055 63 103 0.0 1.0 0.00 0.00 0.00 1 1008.5
20260903232537 63 108 0.0 1.0 0.00 0.00 0.00 1 1008.4
20260903232036 62 218 0.0 1.0 0.00 0.00 0.00 1 1008.4
20260903231535 62 221 0.0 1.0 0.00 0.00 0.00 1 1008.4
20260903231032 62 205 0.0 2.0 0.00 0.00 0.00 1 1008.5
20260903230532 62 209 0.0 2.0 0.00 0.00 0.00 1 1008.5
20260903230030 62 233 0.0 1.0 0.00 0.00 0.00 1 1008.5
20260903225530 61 205 0.0 1.0 0.00 0.00 0.00 1 1008.6
20260903225026 60 215 0.0 1.0 0.00 0.00 0.00 1 1008.6
20260903224537 59 217 0.0 4.0 0.00 0.00 0.00 1 1008.5
20260903224023 59 249 1.0 4.0 0.00 0.00 0.00 1 1008.4
20260903223530 60 65 0.0 1.0 0.00 0.00 0.00 1 1008.4
20260903223028 59 54 0.0 1.0 0.00 0.00 0.00 1 1008.3
20260903222519 58 29 0.0 1.0 0.00 0.00 0.00 1 1008.3
20260903222019 58 27 0.0 1.0 0.00 0.00 0.00 1 1008.4
20260903221516 58 38 0.0 1.0 0.00 0.00 0.00 1 1008.4
20260903221015 58 88 0.0 1.0 0.00 0.00 0.00 1 1008.3
20260903220512 58 113 0.0 1.0 0.00 0.00 0.00 1 1008.3
20260903220013 59 84 0.0 1.0 0.00 0.00 0.00 1 1008.3
20260903215555 59 339 0.0 1.0 0.00 0.00 0.00 1 1008.3
20260903215053 58 342 0.0 1.0 0.00 0.00 0.00 1 1008.3
20260903214602 58 350 0.0 1.0 0.00 0.00 0.00 1 1008.4
20260903214051 57 237 0.0 1.0 0.00 0.00 0.00 1 1008.4
20260903213548 57 229 0.0 1.0 0.00 0.00 0.00 1 1008.4
20260903213105 58 187 0.0 3.0 0.00 0.00 0.00 1 1008.5
20260903212530 62 224 0.0 3.0 0.00 0.00 0.00 1 1008.5
20260903212029 64 75 0.0 4.0 0.00 0.00 0.00 1 1008.5
20260903211528 65 78 0.0 2.0 0.00 0.00 0.00 1 1008.1
20260903211026 65 338 0.0 2.0 0.00 0.00 0.00 1 1008.0
20260903210525 65 71 0.0 2.0 0.00 0.00 0.00 1 1007.9
20260903210023 64 81 0.0 0.0 0.00 0.00 0.00 1 1008.0
20260903205503 64 97 0.0 0.0 0.00 0.00 0.00 1 1008.0
20260903205104 65 60 0.0 0.0 0.00 0.00 0.00 1 1008.0
20260903204002 65 50 0.0 0.0 0.00 0.00 0.00 1 1008.1
20260903203601 65 66 0.0 1.0 0.00 0.00 0.00 1 1008.1
20260903203058 64 98 0.0 2.0 0.00 0.00 0.00 1 1008.0
20260903202545 64 61 0.0 1.0 0.00 0.00 0.00 1 1008.1
20260903202043 64 56 0.0 1.0 0.00 0.00 0.00 1 1008.1
20260903201543 64 157 0.0 3.0 0.00 0.00 0.00 1 1008.0
20260903201041 64 78 0.0 3.0 0.00 0.00 0.00 1 1008.0
20260903200539 61 58 0.0 2.0 0.00 0.00 0.00 1 1008.0
20260903200038 61 102 0.0 3.0 0.00 0.00 0.00 1 1008.1
20260903195536 60 98 0.0 3.0 0.00 0.00 0.00 1 1008.1
20260903195035 60 15 0.0 1.0 0.00 0.00 0.00 1 1008.0
20260903194542 59 52 0.0 3.0 0.00 0.00 0.00 1 1008.0
20260903194032 59 70 0.0 3.0 0.00 0.00 0.00 1 1008.1
20260903193533 59 72 0.0 4.0 0.00 0.00 0.00 1 1008.0
20260903193031 59 100 0.0 4.0 0.00 0.00 0.00 1 1007.9
20260903192527 59 98 0.0 4.0 0.00 0.00 0.00 1 1007.8
20260903192025 59 205 0.0 4.0 0.00 0.00 0.00 1 1007.8
20260903191524 58 106 0.0 2.0 0.00 0.00 0.00 1 1007.7
20260903191027 58 117 0.0 3.0 0.00 0.00 0.00 1 1007.8
20260903190522 57 52 0.0 3.0 0.00 0.00 0.00 1 1007.7
20260903190020 58 114 0.0 2.0 0.00 0.00 0.00 1 1007.7
20260903185519 59 72 0.0 2.0 0.00 0.00 0.00 1 1007.7
20260903185023 59 68 0.0 3.0 0.00 0.00 0.00 1 1007.8
20260903184519 59 112 0.0 3.0 0.00 0.00 0.00 1 1007.7
20260903184025 59 60 0.0 3.0 0.00 0.00 0.00 1 1007.7
20260903183517 59 252 0.0 3.0 0.00 0.00 0.00 1 1007.7
20260903183017 58 91 0.0 3.0 0.00 0.00 0.00 1 1007.7
20260903182515 58 112 0.0 3.0 0.00 0.00 0.00 1 1007.7
20260903182057 58 224 0.0 5.0 0.00 0.00 0.00 1 1007.7
20260903181556 58 100 0.0 5.0 0.00 0.00 0.00 1 1007.7
20260903181053 58 143 0.0 3.0 0.00 0.00 0.00 1 1007.7
20260903180552 58 78 0.0 3.0 0.00 0.00 0.00 1 1007.6
20260903180050 57 101 0.0 3.0 0.00 0.00 0.00 1 1007.5
20260903175552 57 62 0.0 3.0 0.00 0.00 0.00 1 1007.4
20260903175030 57 142 0.0 3.0 0.00 0.00 0.00 1 1007.4
20260903174529 57 235 0.0 2.0 0.00 0.00 0.00 1 1007.3
20260903174028 58 193 0.0 2.0 0.00 0.00 0.00 1 1007.2
20260903173525 58 95 0.0 2.0 0.00 0.00 0.00 1 1007.2
20260903173024 57 76 0.0 3.0 0.00 0.00 0.00 1 1007.2
20260903172522 57 94 0.0 3.0 0.00 0.00 0.00 1 1007.1
20260903172003 57 51 0.0 4.0 0.00 0.00 0.00 1 1007.1
20260903171502 57 98 0.0 4.0 0.00 0.00 0.00 1 1007.1
20260903171001 57 89 0.0 4.0 0.00 0.00 0.00 1 1007.0
20260903170600 57 54 1.0 4.0 0.00 0.00 0.00 1 1007.0
20260903170105 57 215 0.0 4.0 0.00 0.00 0.00 1 1007.0
20260903165557 57 114 0.0 4.0 0.00 0.00 0.00 1 1007.1
20260903165038 56 62 0.0 3.0 0.00 0.00 0.00 1 1007.0
20260903164538 56 46 0.0 2.0 0.00 0.00 0.00 1 1007.0
20260903164038 56 70 0.0 1.0 0.00 0.00 0.00 1 1007.0
20260903163540 56 84 0.0 1.0 0.00 0.00 0.00 1 1007.0
20260903163041 56 91 0.0 1.0 0.00 0.00 0.00 1 1007.0
20260903162533 56 144 0.0 1.0 0.00 0.00 0.00 1 1006.9
20260903162015 56 70 0.0 2.0 0.00 0.00 0.00 1 1006.9
20260903161523 56 72 0.0 2.0 0.00 0.00 0.00 1 1006.9
20260903161011 56 70 0.0 2.0 0.00 0.00 0.00 1 1007.0
20260903160511 55 61 0.0 4.0 0.00 0.00 0.00 1 1007.0
20260903160008 56 115 0.0 3.0 0.00 0.00 0.00 1 1006.9
20260903155507 56 126 0.0 3.0 0.00 0.00 0.00 1 1006.8
20260903155049 55 20 0.0 0.0 0.00 0.00 0.00 1 1006.7
20260903154554 55 68 0.0 1.0 0.00 0.00 0.00 1 1006.6
20260903154047 55 103 0.0 2.0 0.00 0.00 0.00 1 1006.7
20260903153546 55 70 0.0 1.0 0.00 0.00 0.00 1 1006.6
20260903153042 55 76 0.0 3.0 0.00 0.00 0.00 1 1006.6
20260903152541 55 63 0.0 3.0 0.00 0.00 0.00 1 1006.6
20260903152027 55 105 0.0 3.0 0.00 0.00 0.00 1 1006.6
20260903151520 55 127 0.0 1.0 0.00 0.00 0.00 1 1006.6
20260903151019 55 77 0.0 2.0 0.00 0.00 0.00 1 1006.5
20260903150521 55 68 0.0 2.0 0.00 0.00 0.00 1 1006.5
20260903150016 55 87 0.0 1.0 0.00 0.00 0.00 1 1006.4
20260903145517 55 89 0.0 2.0 0.00 0.00 0.00 1 1006.3
20260903145057 0 0.0 0.0 0.00 0.00 0.00 1006.3
20260903144556 0 0.0 0.0 0.00 0.00 0.00 1006.3
20260903144054 0 0.0 0.0 0.00 0.00 0.00 1006.3
20260903143553 0 0.0 0.0 0.00 0.00 0.00 1006.3
20260903143059 0 0.0 0.0 0.00 0.00 0.00 1006.2
20260903142551 0 0.0 0.0 0.00 0.00 0.00 1006.2
20260903142035 0 0.0 0.0 0.00 0.00 0.00 1006.2
20260903141530 0 0.0 0.0 0.00 0.00 0.00 1006.1
20260903141029 0 0.0 0.0 0.00 0.00 0.00 1006.0
20260903140528 0 0.0 0.0 0.00 0.00 0.00 1006.0
20260903140030 0 0.0 0.0 0.00 0.00 0.00 1005.9
20260903135525 0 0.0 0.0 0.00 0.00 0.00 1006.0
20260903135006 0 0.0 0.0 0.00 0.00 0.00 1005.8
20260903134505 0 0.0 0.0 0.00 0.00 0.00 1005.7
20260903134003 0 0.0 0.0 0.00 0.00 0.00 1005.6
20260903133504 0 0.0 0.0 0.00 0.00 0.00 1005.5
20260903133006 0 0.0 0.0 0.00 0.00 0.00 1005.6
20260903132503 0 0.0 0.0 0.00 0.00 0.00 1005.3
20260903132102 0 0.0 0.0 0.00 0.00 0.00 1005.4
20260903131601 0 0.0 0.0 0.00 0.00 0.00 1005.5
20260903131044 0 0.0 0.0 0.00 0.00 0.00 1005.4
20260903130544 0 0.0 0.0 0.00 0.00 0.00 1005.4
20260903130045 0 0.0 0.0 0.00 0.00 0.00 1005.4
20260903125543 0 0.0 0.0 0.00 0.00 0.00 1005.5
20260903125042 0 0.0 0.0 0.00 0.00 0.00 1005.5
20260903124522 0 0.0 0.0 0.00 0.00 0.00 1005.5
20260903124021 0 0.0 0.0 0.00 0.00 0.00 1005.6
20260903123519 0 0.0 0.0 0.00 0.00 0.00 1005.5
20260903123018 0 0.0 0.0 0.00 0.00 0.00 1005.6
20260903122517 0 0.0 0.0 0.00 0.00 0.00 1005.6
20260903122016 0 0.0 0.0 0.00 0.00 0.00 1005.5
20260903121622 0 0.0 0.0 0.00 0.00 0.00 1005.4
20260903121056 0 0.0 0.0 0.00 0.00 0.00 1005.4
20260903120556 0 0.0 0.0 0.00 0.00 0.00 1005.4
20260903120054 0 0.0 0.0 0.00 0.00 0.00 1005.3
20260903115552 0 0.0 0.0 0.00 0.00 0.00 1005.2
20260903115049 0 0.0 0.0 0.00 0.00 0.00 1005.3
20260903114531 0 0.0 0.0 0.00 0.00 0.00 1005.3
20260903114029 0 0.0 0.0 0.00 0.00 0.00 1005.3
20260903113527 0 0.0 0.0 0.00 0.00 0.00 1005.4
20260903113026 0 0.0 0.0 0.00 0.00 0.00 1005.3
20260903112525 0 0.0 0.0 0.00 0.00 0.00 1005.4
20260903112025 0 0.0 0.0 0.00 0.00 0.00 1005.4
20260903111505 0 0.0 0.0 0.00 0.00 0.00 1005.3
20260903111005 0 0.0 0.0 0.00 0.00 0.00 1005.3
20260903110502 0 0.0 0.0 0.00 0.00 0.00 1005.2
20260903110100 0 0.0 0.0 0.00 0.00 0.00 1005.1
20260903105559 0 0.0 0.0 0.00 0.00 0.00 1005.1
20260903105058 0 0.0 0.0 0.00 0.00 0.00 1005.0
20260903104550 0 0.0 0.0 0.00 0.00 0.00 1005.0
20260903104037 0 0.0 0.0 0.00 0.00 0.00 1004.9
20260903103536 0 0.0 0.0 0.00 0.00 0.00 1005.0
20260903103034 0 0.0 0.0 0.00 0.00 0.00 1005.0
20260903102533 0 0.0 0.0 0.00 0.00 0.00 1005.0
20260903102034 0 0.0 0.0 0.00 0.00 0.00 1005.0
20260903101517 0 0.0 0.0 0.00 0.00 0.00 1005.0
20260903101016 0 0.0 0.0 0.00 0.00 0.00 1005.0
20260903100516 0 0.0 0.0 0.00 0.00 0.00 1005.0
20260903100030 0 0.0 0.0 0.00 0.00 0.00 1005.0
20260903095512 0 0.0 0.0 0.00 0.00 0.00 1004.9
20260903095010 0 0.0 0.0 0.00 0.00 0.00 1004.9
20260903094509 0 0.0 0.0 0.00 0.00 0.00 1004.9
20260903094009 0 0.0 0.0 0.00 0.00 0.00 1005.0
20260903093508 0 0.0 0.0 0.00 0.00 0.00 1004.9
20260903093006 0 0.0 0.0 0.00 0.00 0.00 1004.9
20260903092505 0 0.0 0.0 0.00 0.00 0.00 1005.0
20260903092000 0 0.0 0.0 0.00 0.00 0.00 1004.9
20260903091604 0 0.0 0.0 0.00 0.00 0.00 1004.9
20260903091058 0 0.0 0.0 0.00 0.00 0.00 1004.9
20260903090557 0 0.0 0.0 0.00 0.00 0.00 1004.9
20260903090100 0 0.0 0.0 0.00 0.00 0.00 1004.9
20260903085556 0 0.0 0.0 0.00 0.00 0.00 1004.9
20260903085052 0 0.0 0.0 0.00 0.00 0.00 1004.8
20260903084551 0 0.0 0.0 0.00 0.00 0.00 1004.8
20260903084050 0 0.0 0.0 0.00 0.00 0.00 1004.8
20260903083549 0 0.0 0.0 0.00 0.00 0.00 1004.8
20260903083050 0 0.0 0.0 0.00 0.00 0.00 1004.9
20260903082545 0 0.0 0.0 0.00 0.00 0.00 1004.9
20260903082044 0 0.0 0.0 0.00 0.00 0.00 1004.9
20260903081525 0 0.0 0.0 0.00 0.00 0.00 1004.9
20260903081024 0 0.0 0.0 0.00 0.00 0.00 1004.9
20260903080522 0 0.0 0.0 0.00 0.00 0.00 1004.9
20260903080020 0 0.0 0.0 0.00 0.00 0.00 1005.0
20260903075524 0 0.0 0.0 0.00 0.00 0.00 1005.1
20260903075018 0 0.0 0.0 0.00 0.00 0.00 1005.0
20260903074616 0 0.0 0.0 0.00 0.00 0.00 1005.0
20260903074059 0 0.0 0.0 0.00 0.00 0.00 1004.8
20260903073557 0 0.0 0.0 0.00 0.00 0.00 1004.9
20260903073059 0 0.0 0.0 0.00 0.00 0.00 1004.9
20260903072555 0 0.0 0.0 0.00 0.00 0.00 1004.9
20260903072054 0 0.0 0.0 0.00 0.00 0.00 1004.9
20260903071555 0 0.0 0.0 0.00 0.00 0.00 1004.9
20260903071040 0 0.0 0.0 0.00 0.00 0.00 1004.8
20260903070536 0 0.0 0.0 0.00 0.00 0.00 1004.8
20260903070036 0 0.0 0.0 0.00 0.00 0.00 1004.8
20260903065534 0 0.0 0.0 0.00 0.00 0.00 1004.8
20260903065032 0 0.0 0.0 0.00 0.00 0.00 1004.9
20260903064530 0 0.0 0.0 0.00 0.00 0.00 1005.0
20260903064011 58 242 2.0 7.0 0.00 0.00 0.00 1 1005.0
20260903063510 58 242 2.0 7.0 0.00 0.00 0.00 1 1005.0
20260903063008 59 222 0.0 6.0 0.00 0.00 0.00 1 1004.7
20260903062509 59 207 0.0 6.0 0.00 0.00 0.00 1 1004.8
20260903062006 59 232 0.0 2.0 0.00 0.00 0.00 1 1005.0
20260903061503 58 227 0.0 2.0 0.00 0.00 0.00 1 1005.0
20260903061046 58 195 0.0 3.0 0.00 0.00 0.00 1 1005.1
20260903060545 58 227 0.0 6.0 0.00 0.00 0.00 1 1005.1
20260903060057 58 89 0.0 6.0 0.00 0.00 0.00 1 1005.1
20260903055546 58 227 0.0 3.0 0.00 0.00 0.00 1 1005.2
20260903055044 58 245 0.0 3.0 0.00 0.00 0.00 1 1005.2
20260903054544 58 56 0.0 5.0 0.00 0.00 0.00 1 1005.2
20260903054025 58 62 1.0 5.0 0.00 0.00 0.00 1 1005.2
20260903053525 58 342 0.0 0.0 0.00 0.00 0.00 1 1005.2
20260903053022 58 117 0.0 1.0 0.00 0.00 0.00 1 1005.2
20260903052526 58 222 0.0 2.0 0.00 0.00 0.00 1 1005.2
20260903052022 58 152 0.0 2.0 0.00 0.00 0.00 1 1005.2
20260903051524 58 177 0.0 5.0 0.00 0.00 0.00 1 1005.2
20260903051003 58 219 1.0 5.0 0.00 0.00 0.00 1 1005.2
20260903050502 58 222 0.0 5.0 0.00 0.00 0.00 1 1005.2
20260903050101 58 163 0.0 5.0 0.00 0.00 0.00 1 1005.2
20260903045559 58 207 0.0 2.0 0.00 0.00 0.00 1 1005.2
20260903045058 58 108 0.0 3.0 0.00 0.00 0.00 1 1005.2
20260903044558 58 200 0.0 3.0 0.00 0.00 0.00 1 1005.1
20260903044037 58 88 0.0 5.0 0.00 0.00 0.00 1 1005.1
20260903043536 58 200 0.0 6.0 0.00 0.00 0.00 1 1005.1
20260903043036 58 75 0.0 6.0 0.00 0.00 0.00 1 1005.0
20260903042532 59 228 0.0 5.0 0.00 0.00 0.00 1 1005.0
20260903042031 59 212 0.0 3.0 0.00 0.00 0.00 1 1004.9
20260903041534 59 229 1.0 3.0 0.00 0.00 0.00 1 1004.9
20260903041015 59 101 0.0 4.0 0.00 0.00 0.00 1 1004.9
20260903040509 59 172 0.0 3.0 0.00 0.00 0.00 1 1004.8
20260903040012 58 221 0.0 3.0 0.00 0.00 0.00 1 1004.8
20260903035509 58 212 0.0 6.0 0.00 0.00 0.00 1 1004.8
20260903035005 58 218 0.0 6.0 0.00 0.00 0.00 1 1004.8
20260903034503 58 167 0.0 4.0 0.00 0.00 0.00 1 1004.7
20260903034044 58 194 0.0 4.0 0.00 0.00 0.00 1 1004.7
20260903033546 58 107 0.0 4.0 0.00 0.00 0.00 1 1004.6
20260903033044 58 49 0.0 4.0 0.00 0.00 0.00 1 1004.6
20260903032539 57 233 0.0 6.0 0.00 0.00 0.00 1 1004.5
20260903032037 57 207 1.0 6.0 0.00 0.00 0.00 1 1004.5
20260903031541 57 215 0.0 5.0 0.00 0.00 0.00 1 1004.5
20260903031021 56 165 0.0 5.0 0.00 0.00 0.00 1 1004.5
20260903030516 56 222 0.0 5.0 0.00 0.00 0.00 1 1004.5